Location: Almena City Lake
(39.8850°N, 99.6804°W)
Time: 15:28:58
(UTC+00:00)

SKYMED 2 - Pass Details

Date: 18 February 2020
Orbit: 621 x 623 km, 97.9° (Epoch: 08 April)

Event Time Altitude Azimuth Distance (km) Brightness Sun altitude
Rises 11:32:18 0° 155° (SSE) 2,889 7.3 -22.9°
Reaches altitude 10° 11:34:30 10° 150° (SSE) 1,988 6.5 -22.4°
Maximum altitude 11:38:43 54° 74° (ENE) 761 4.3 -21.6°
Drops below altitude 10° 11:42:58 10° 357° (N) 2,003 6.2 -20.8°
Sets 11:45:12 0° 353° (N) 2,914 7.0 -20.4°
